Location: Newark
(34.1333°N, 7.9667°W)
Time: 17:55:07
(UTC+00:00)

S-56A Canister/Altair - All Passes

Search period start: 18 June 2021 00:00
Search period end: 28 June 2021 00:00
Orbit: 632 x 2500 km, 38.9° (Epoch: 17 June)

Date Brightness Start Highest point End Pass type
(mag) Time Alt. Az. Time Alt. Az. Time Alt. Az.
18 Jun - 03:29:21 10° SSW 03:32:47 20° SE 03:36:04 10° E visible
18 Jun - 05:31:35 10° WSW 05:36:00 84° NNW 05:41:05 10° ENE daylight
18 Jun - 07:35:24 10° WNW 07:40:08 52° N 07:46:36 10° E daylight
18 Jun - 09:38:41 10° WNW 09:44:35 87° NNE 09:53:36 10° ESE daylight
18 Jun - 11:42:21 10° W 11:49:11 39° SSW 11:59:06 10° SSE daylight
18 Jun - 13:51:14 10° WSW 13:54:15 12° SW 13:57:34 10° SSW daylight
19 Jun - 02:57:11 10° S 03:00:17 17° SE 03:03:10 10° ESE visible
19 Jun - 04:59:04 10° WSW 05:03:30 85° SSE 05:08:18 10° ENE daylight
19 Jun - 07:02:58 10° WNW 07:07:29 51° N 07:13:23 10° ENE daylight
19 Jun - 09:06:20 10° WNW 09:11:50 80° NNE 09:20:05 10° ESE daylight
19 Jun - 11:09:49 10° W 11:16:17 42° SSW 11:25:48 10° SE daylight
19 Jun - 13:17:18 10° WSW 13:21:14 13° SW 13:25:43 10° SSW daylight
20 Jun - 02:25:06 10° S 02:27:45 14° SE 02:30:12 10° ESE visible
20 Jun - 04:26:30 10° WSW 04:31:02 73° SSE 04:35:36 10° ENE visible
20 Jun - 06:30:30 10° W 06:34:52 50° N 06:40:18 10° ENE daylight
20 Jun - 08:33:59 10° WNW 08:39:09 73° NNE 08:46:40 10° ESE daylight
20 Jun - 10:37:20 10° W 10:43:26 46° SSW 10:52:29 10° SE daylight
20 Jun - 12:43:52 10° WSW 12:48:14 15° SW 12:53:26 10° S daylight
21 Jun - 01:53:09 10° SSE 01:55:11 12° SE 01:57:05 10° ESE visible
21 Jun - 03:53:54 10° SW 03:58:33 62° SSE 04:02:58 10° ENE visible
21 Jun - 05:57:59 10° W 06:02:18 50° N 06:07:20 10° ENE daylight
21 Jun - 08:01:37 10° WNW 08:06:30 66° NNE 08:13:19 10° E daylight
21 Jun - 10:04:54 10° WNW 10:10:39 50° SSW 10:19:12 10° SE daylight
21 Jun - 12:10:42 10° WSW 12:15:18 16° SW 12:20:54 10° S daylight
22 Jun - 01:21:39 10° SSE 01:22:36 10° SE 01:23:29 10° SE visible
22 Jun - 03:21:15 10° SW 03:26:05 52° SSE 03:30:23 10° ENE visible
22 Jun - 05:25:24 10° W 05:29:44 52° N 05:34:29 10° ENE daylight
22 Jun - 07:29:15 10° WNW 07:33:53 60° NNE 07:40:04 10° E daylight
22 Jun - 09:32:29 10° WNW 09:37:56 55° SSW 09:45:56 10° SE daylight
22 Jun - 11:37:44 10° WSW 11:42:24 18° SW 11:48:14 10° S daylight
23 Jun - 02:48:34 10° SW 02:53:36 45° SSE 02:57:51 10° E visible
23 Jun - 04:52:45 10° W 04:57:12 56° NNW 05:01:45 10° ENE visible
23 Jun - 06:56:51 10° WNW 07:01:18 55° N 07:06:55 10° E daylight
23 Jun - 09:00:06 10° WNW 09:05:15 61° SSW 09:12:43 10° SE daylight
23 Jun - 11:04:54 10° WSW 11:09:33 19° SSW 11:15:29 10° S daylight
24 Jun - 02:15:50 10° SW 02:21:05 39° SSE 02:25:20 10° E visible
24 Jun - 04:20:02 10° W 04:24:40 61° NNW 04:29:07 10° ENE visible
24 Jun - 06:24:24 10° WNW 06:28:44 51° N 06:33:53 10° E daylight
24 Jun - 08:27:43 10° WNW 08:32:38 68° SSW 08:39:32 10° ESE daylight
24 Jun - 10:32:10 10° W 10:36:45 21° SSW 10:42:42 10° SSE daylight
25 Jun - 01:43:04 10° SW 01:48:33 34° SSE 01:52:50 10° E visible
25 Jun - 03:47:13 10° W 03:52:09 68° NNW 03:56:33 10° ENE visible
25 Jun - 05:51:52 10° WNW 05:56:10 48° N 06:00:57 10° E daylight
25 Jun - 07:55:20 10° WNW 08:00:03 77° SSW 08:06:26 10° ESE daylight
25 Jun - 09:59:31 10° W 10:04:01 23° SSW 10:09:53 10° SSE daylight
26 Jun - 01:10:15 10° SSW 01:15:58 31° SSE 01:20:20 10° E visible
26 Jun - 03:14:21 10° WSW 03:19:38 77° NNW 03:24:04 10° ENE visible
26 Jun - 05:19:17 10° WNW 05:23:36 46° N 05:28:08 10° ENE daylight
26 Jun - 07:22:56 10° WNW 07:27:30 86° SSW 07:33:23 10° ESE daylight
26 Jun - 09:26:55 10° W 09:31:19 25° SSW 09:37:04 10° SSE daylight
27 Jun - 00:37:24 10° SSW 00:43:20 28° SSE 00:47:49 10° E visible
27 Jun - 02:41:23 10° WSW 02:47:07 86° NNW 02:51:38 10° ENE visible
27 Jun - 04:46:36 10° WNW 04:51:02 46° N 04:55:24 10° ENE visible
27 Jun - 06:50:31 10° WNW 06:54:58 84° NNE 07:00:25 10° ESE daylight
27 Jun - 08:54:22 10° W 08:58:40 27° SSW 09:04:15 10° SSE daylight
